Погода в Самаринде

Индонезия     0°30′31″N   117°09′25″E
темп.,
°C
ветер,
м/с
пор.,
м/с
влажн.,
%
обл.,
%
осадки,
мм/ч
давл.,
гПа
погр.,
м
2 марта, вт
вт223:00+25всв0182100 0.0 101124
02:00+24з0084100 0.0 100924
05:00+24сз0183100 0.0 100924
08:00+25ссз1183100 0.0 101146
11:00+33с135055 0.0 10111101
14:00+35ссв234428 0.0 10081995
17:00+29всв377290 0.4 1007448
20:00+26в298495 0.5 1009421
3 марта, ср
ср323:00+25всв189694 2.3 1010247
02:00+25ссв299595 3.0 1009368
05:00+24ссз139699 0.1 1009101
08:00+25сз1395100 2.3 1011132
11:00+28св1587100 3.4 1012603
14:00+32всв135498 3.6 10091068
17:00+30всв126184 0.0 1008935
20:00+24ю129264 0.9 101132
4 марта, чт
чт423:00+23ю019289 0.0 101224
02:00+23ссз119394 0.4 101025
05:00+23ссв0193100 0.2 101023
08:00+24ссв1194100 0.3 101239
11:00+28с1474100 0.0 1012502
14:00+33св2449100 0.0 10091644
17:00+30св366630 0.5 1007696
20:00+25всв178651 0.7 1010200
5 марта, пт
пт523:00+24св1190100 0.3 101131
02:00+24ссв149295 0.3 1010133
05:00+23ссз119499 0.0 100937
08:00+25с138899 0.0 1012191
11:00+29св247298 0.0 1011829
14:00+27в267999 0.4 1008465
17:00+27в267997 0.1 1007413
20:00+25всв158898 0.3 1009152
6 марта, сб
сб623:00+24ссв159699 2.0 1011167
02:00+23ссз119971 3.1 100927
05:00+22сз129965 2.8 100970
08:00+23сз269582 2.8 1012288
11:00+31сз2458100 0.0 10121050
14:00+29св138496 3.8 1008775
17:00+27всв2690100 4.2 1008282
20:00+24св2795100 4.6 1010195